This demonstration page uses our WeatherBlox Daily Observations layout. Learn more.

Left ArrowRight Arrow

Hourly Observations for August 17, 2017

Temp ( °F °C ) Dew Point ( °F °C ) Humidity (%) Winds ( mph kmh ) Pressure ( in mb ) Visibility ( mi km ) Precip ( " mm )
12:15 am 00:15 Clear 76 24.7 71 21.7 83 83 S 7 11 29.91 1013 10 16 0.00 0.00
12:35 am 00:35 Clear 77 24.8 71 21.8 83 83 S 6 9 29.91 1013 10 16 0.00 0.00
12:55 am 00:55 Clear 77 25 71 21.8 82 82 S 7 11 29.91 1013 10 16 0.00 0.00
1:15 am 01:15 Clear 77 24.8 71 21.9 84 84 S 6 9 29.91 1013 10 16 0.00 0.00
1:35 am 01:35 Partly Cloudy 76 24.6 71 21.9 85 85 S 5 7 29.91 1013 10 16 0.00 0.00
1:55 am 01:55 Mostly Cloudy 76 24.5 72 22 86 86 S 7 11 29.91 1013 10 16 0.00 0.00
2:15 am 02:15 Partly Cloudy 76 24.6 71 21.7 84 84 SSW 9 15 29.91 1013 10 16 0.00 0.00
2:35 am 02:35 Partly Cloudy 75 23.9 71 21.8 88 88 SSW 8 13 29.88 1012 10 16 0.00 0.00
2:55 am 02:55 Mostly Cloudy 75 24 72 22.2 90 90 SSW 10 17 29.88 1012 10 16 0.01 0.25
3:15 am 03:15 Partly Cloudy 74 23.5 72 22.2 92 92 SSW 9 15 29.88 1012 10 16 0.00 0.00
3:35 am 03:35 Partly Cloudy 74 23.5 72 22.2 92 92 SSW 9 15 29.88 1012 10 16 0.00 0.00
3:55 am 03:55 Partly Cloudy 74 23.2 72 22.1 94 94 SSW 10 17 29.88 1012 10 16 0.00 0.00
4:15 am 04:15 Partly Cloudy 74 23.1 72 22.1 94 94 S 9 15 29.88 1012 10 16 0.00 0.00
4:35 am 04:35 Partly Cloudy 73 23 72 22 94 94 SSW 9 15 29.88 1012 10 16 0.00 0.00
4:55 am 04:55 Partly Cloudy 73 22.8 72 22 95 95 SSW 9 15 29.88 1012 10 16 0.00 0.00
5:15 am 05:15 Cloudy 73 22.7 70 21.3 92 92 SSW 8 13 29.88 1012 10 16 0.00 0.00
5:35 am 05:35 Cloudy 73 22.6 71 21.6 94 94 SSW 7 11 29.88 1012 10 16 0.00 0.00
5:55 am 05:55 Cloudy 73 22.7 72 22 96 96 S 8 13 29.88 1012 7 11 0.00 0.00
6:15 am 06:15 Mostly Cloudy 73 22.7 72 22.1 96 96 SSW 8 13 29.88 1012 7 11 0.00 0.00
6:35 am 06:35 Mostly Cloudy 73 22.7 72 22.2 97 97 S 9 15 29.88 1012 7 11 0.00 0.00
6:55 am 06:55 Mostly Cloudy 73 22.8 72 22.2 96 96 S 9 15 29.88 1012 7 11 0.00 0.00
7:15 am 07:15 Mostly Cloudy 73 22.8 72 22.2 96 96 S 9 15 29.88 1012 7 11 0.00 0.00
7:35 am 07:35 Mostly Cloudy 73 23 72 22.2 95 95 S 7 11 29.88 1012 7 11 0.00 0.00
7:55 am 07:55 Mostly Cloudy 74 23.3 73 22.5 95 95 SSW 12 19 29.88 1012 7 11 0.00 0.00
8:15 am 08:15 Cloudy with Mist and Fog 74 23.5 73 22.6 95 95 S 16 26 29.88 1012 5 8 0.00 0.00
8:35 am 08:35 Cloudy with Mist and Fog 75 23.7 73 22.8 95 95 SSW 15 24 29.88 1012 5 8 0.00 0.00
8:55 am 08:55 Cloudy with Mist and Fog 75 24 73 23 94 94 SSW 15 24 29.88 1012 5 8 0.00 0.00
9:15 am 09:15 Cloudy 76 24.3 73 23 92 92 SSW 13 20 29.88 1012 7 11 0.00 0.00
9:35 am 09:35 Cloudy 77 24.8 74 23.1 90 90 SSW 14 22 29.85 1011 7 11 0.00 0.00
9:55 am 09:55 Cloudy 78 25.3 74 23.3 89 89 SSW 15 24 29.85 1011 10 16 0.00 0.00
10:15 am 10:15 Cloudy 77 25 73 23 89 89 SSW 14 22 29.85 1011 10 16 0.00 0.00
10:35 am 10:35 Cloudy with Heavy Rain 77 24.9 74 23.2 90 90 SSW 18 30 29.85 1011 4 6 0.06 1.52
10:55 am 10:55 Cloudy 77 25 75 23.7 93 93 SW 14 22 29.85 1011 7 11 0.08 2.03
11:15 am 11:15 Cloudy with Light Rain 76 24.2 73 22.6 91 91 W 12 19 29.85 1011 7 11 0.00 0.00
11:35 am 11:35 Cloudy with Light Rain 73 22.6 71 21.6 94 94 W 9 15 29.85 1011 10 16 0.00 0.00
11:55 am 11:55 Cloudy 74 23.2 71 21.8 92 92 WSW 12 19 29.85 1011 10 16 0.01 0.25
12:15 pm 12:15 Mostly Cloudy 75 24 71 21.9 88 88 W 14 22 29.85 1011 10 16 0.00 0.00
12:35 pm 12:35 Partly Cloudy 76 24.7 71 21.7 83 83 W 12 19 29.85 1011 10 16 0.00 0.00
12:55 pm 12:55 Mostly Cloudy 77 24.8 69 20.8 79 79 WSW 14 22 29.85 1011 10 16 0.00 0.00
1:15 pm 13:15 Partly Cloudy 78 25.7 69 20.6 74 74 WSW 13 20 29.83 1010 10 16 0.00 0.00
1:35 pm 13:35 Sunny 80 26.5 70 21.1 72 72 SW 12 19 29.83 1010 10 16 0.00 0.00
1:55 pm 13:55 Sunny 81 27.3 69 20.4 66 66 WSW 14 22 29.83 1010 10 16 0.00 0.00
2:15 pm 14:15 Sunny 82 27.7 69 20.3 64 64 SW 12 19 29.83 1010 10 16 0.00 0.00
2:35 pm 14:35 Sunny 83 28.1 68 20.1 62 62 WSW 17 28 29.83 1010 10 16 0.00 0.00
2:55 pm 14:55 Sunny 82 28 68 19.8 61 61 WSW 15 24 29.83 1010 10 16 0.00 0.00
3:15 pm 15:15 Partly Cloudy 83 28.4 70 20.9 64 64 W 14 22 29.83 1010 10 16 0.00 0.00
3:35 pm 15:35 undefined 81 27.3 69 20.5 66 66 WSW 13 20 29.80 1009 N/A 0.00 0.00
3:55 pm 15:55 Mostly Cloudy 80 26.9 69 20.5 68 68 W 13 20 29.80 1009 10 16 0.00 0.00
4:15 pm 16:15 Partly Cloudy 82 27.7 70 21 67 67 WSW 15 24 29.80 1009 10 16 0.00 0.00
4:35 pm 16:35 Mostly Cloudy 81 27.4 69 20.7 67 67 WSW 16 26 29.80 1009 10 16 0.00 0.00
4:55 pm 16:55 Mostly Cloudy 82 27.9 70 21.2 67 67 WSW 12 19 29.80 1009 10 16 0.00 0.00
5:15 pm 17:15 Mostly Cloudy 82 27.9 70 21.1 67 67 WSW 17 28 29.80 1009 10 16 0.00 0.00
5:35 pm 17:35 Partly Cloudy 81 27.1 70 21.2 70 70 WSW 12 19 29.80 1009 10 16 0.00 0.00
5:55 pm 17:55 Mostly Cloudy 80 26.5 71 21.4 74 74 WSW 9 15 29.80 1009 10 16 0.00 0.00
6:15 pm 18:15 Mostly Cloudy 80 26.7 71 21.5 73 73 SW 12 19 29.80 1009 10 16 0.00 0.00
6:35 pm 18:35 Partly Cloudy 81 27 71 21.6 72 72 SW 13 20 29.80 1009 10 16 0.00 0.00
6:55 pm 18:55 Partly Cloudy 80 26.6 70 21.2 72 72 SW 14 22 29.80 1009 10 16 0.00 0.00
7:15 pm 19:15 Partly Cloudy 80 26.6 70 21.1 72 72 SW 13 20 29.80 1009 10 16 0.00 0.00
7:35 pm 19:35 Partly Cloudy 79 26.1 70 21.1 74 74 SW 10 17 29.80 1009 10 16 0.00 0.00
7:55 pm 19:55 Partly Cloudy 78 25.5 70 21.1 77 77 SW 8 13 29.80 1009 10 16 0.00 0.00
8:15 pm 20:15 Mostly Cloudy 77 25.1 70 21.1 79 79 SSW 8 13 29.83 1010 10 16 0.00 0.00
8:35 pm 20:35 Cloudy 77 25 70 21.1 79 79 SSW 7 11 29.83 1010 10 16 0.00 0.00
8:55 pm 20:55 Mostly Cloudy 76 24.2 70 21.1 83 83 WSW 6 9 29.83 1010 10 16 0.00 0.00
9:15 pm 21:15 Partly Cloudy 75 23.7 70 21.1 85 85 SW 6 9 29.83 1010 10 16 0.00 0.00
9:35 pm 21:35 Partly Cloudy 73 22.8 70 21 90 90 WSW 5 7 29.83 1010 10 16 0.00 0.00
9:55 pm 21:55 Partly Cloudy 73 22.8 70 21 90 90 SW 6 9 29.83 1010 10 16 0.00 0.00
10:15 pm 22:15 Mostly Cloudy 73 22.5 70 21 91 91 WSW 5 7 29.83 1010 10 16 0.00 0.00
10:35 pm 22:35 Mostly Cloudy 73 22.8 69 20.8 89 89 WSW 7 11 29.83 1010 10 16 0.00 0.00
10:55 pm 22:55 Partly Cloudy 72 22.3 69 20.7 91 91 SW 5 7 29.85 1011 10 16 0.00 0.00
11:15 pm 23:15 Partly Cloudy 72 22 69 20.5 91 91 WSW 5 7 29.85 1011 10 16 0.00 0.00
11:35 pm 23:35 Partly Cloudy 72 22 69 20.5 91 91 WSW 5 7 29.85 1011 10 16 0.00 0.00
11:55 pm 23:55 Partly Cloudy 71 21.9 69 20.5 92 92 WSW 6 9 29.85 1011 10 16 0.00 0.00

Powered by AerisWeather